Year,Month,Day,Hour,Minute,Value (Times are PST for temperature in C)
2013,07,02,00,00,19.70
2013,07,02,00,01,19.60
2013,07,02,00,02,19.50
2013,07,02,00,03,19.50
2013,07,02,00,04,19.40
2013,07,02,00,05,19.40
2013,07,02,00,06,19.30
2013,07,02,00,07,19.30
2013,07,02,00,08,19.20
2013,07,02,00,09,19.20
2013,07,02,00,10,19.20
2013,07,02,00,11,19.20
2013,07,02,00,12,19.10
2013,07,02,00,13,19.10
2013,07,02,00,14,19.10
2013,07,02,00,15,19.10
2013,07,02,00,16,19.10
2013,07,02,00,17,19.00
2013,07,02,00,18,18.90
2013,07,02,00,19,18.90
2013,07,02,00,20,18.90
2013,07,02,00,21,18.80
2013,07,02,00,22,18.80
2013,07,02,00,23,18.70
2013,07,02,00,24,18.70
2013,07,02,00,25,18.70
2013,07,02,00,26,18.70
2013,07,02,00,27,18.60
2013,07,02,00,28,18.60
2013,07,02,00,29,18.60
2013,07,02,00,30,18.60
2013,07,02,00,31,18.60
2013,07,02,00,32,18.60
2013,07,02,00,33,18.60
2013,07,02,00,34,18.60
2013,07,02,00,35,18.60
2013,07,02,00,36,18.60
2013,07,02,00,37,18.60
2013,07,02,00,38,18.60
2013,07,02,00,39,18.50
2013,07,02,00,40,18.50
2013,07,02,00,41,18.40
2013,07,02,00,42,18.40
2013,07,02,00,43,18.40
2013,07,02,00,44,18.30
2013,07,02,00,45,18.30
2013,07,02,00,46,18.30
2013,07,02,00,47,18.30
2013,07,02,00,48,18.20
2013,07,02,00,49,18.20
2013,07,02,00,50,18.20
2013,07,02,00,51,18.10
2013,07,02,00,52,18.10
2013,07,02,00,53,18.00
2013,07,02,00,54,17.90
2013,07,02,00,55,17.90
2013,07,02,00,56,17.90
2013,07,02,00,57,17.80
2013,07,02,00,58,17.80
2013,07,02,00,59,17.80
2013,07,02,01,00,17.80
2013,07,02,01,01,17.80
2013,07,02,01,02,17.80
2013,07,02,01,03,17.80
2013,07,02,01,04,17.80
2013,07,02,01,05,17.80
2013,07,02,01,06,17.80
2013,07,02,01,07,17.80
2013,07,02,01,08,17.70
2013,07,02,01,09,17.70
2013,07,02,01,10,17.70
2013,07,02,01,11,17.70
2013,07,02,01,12,17.70
2013,07,02,01,13,17.70
2013,07,02,01,14,17.70
2013,07,02,01,15,17.70
2013,07,02,01,16,17.70
2013,07,02,01,17,17.70
2013,07,02,01,18,17.70
2013,07,02,01,19,17.70
2013,07,02,01,20,17.70
2013,07,02,01,21,17.70
2013,07,02,01,22,17.70
2013,07,02,01,23,17.70
2013,07,02,01,24,17.70
2013,07,02,01,25,17.70
2013,07,02,01,26,17.70
2013,07,02,01,27,17.70
2013,07,02,01,28,17.70
2013,07,02,01,29,17.70
2013,07,02,01,30,17.70
2013,07,02,01,31,17.70
2013,07,02,01,32,17.70
2013,07,02,01,33,17.70
2013,07,02,01,34,17.70
2013,07,02,01,35,17.70
2013,07,02,01,36,17.70
2013,07,02,01,37,17.70
2013,07,02,01,38,17.70
2013,07,02,01,39,17.70
2013,07,02,01,40,17.70
2013,07,02,01,41,17.60
2013,07,02,01,42,17.60
2013,07,02,01,43,17.60
2013,07,02,01,44,17.60
2013,07,02,01,45,17.60
2013,07,02,01,46,17.60
2013,07,02,01,47,17.60
2013,07,02,01,48,17.60
2013,07,02,01,49,17.60
2013,07,02,01,50,17.60
2013,07,02,01,51,17.60
2013,07,02,01,52,17.60
2013,07,02,01,53,17.50
2013,07,02,01,54,17.50
2013,07,02,01,55,17.40
2013,07,02,01,56,17.40
2013,07,02,01,57,17.30
2013,07,02,01,58,17.30
2013,07,02,01,59,17.20
2013,07,02,02,00,17.20
2013,07,02,02,01,17.20
2013,07,02,02,02,17.10
2013,07,02,02,03,17.10
2013,07,02,02,04,17.00
2013,07,02,02,05,17.00
2013,07,02,02,06,16.90
2013,07,02,02,07,16.90
2013,07,02,02,08,16.90
2013,07,02,02,09,16.90
2013,07,02,02,10,16.90
2013,07,02,02,11,16.90
2013,07,02,02,12,16.80
2013,07,02,02,13,16.80
2013,07,02,02,14,16.80
2013,07,02,02,15,16.90
2013,07,02,02,16,16.90
2013,07,02,02,17,16.90
2013,07,02,02,18,16.90
2013,07,02,02,19,16.90
2013,07,02,02,20,16.90
2013,07,02,02,21,16.90
2013,07,02,02,22,16.90
2013,07,02,02,23,17.00
2013,07,02,02,24,17.00
2013,07,02,02,25,17.00
2013,07,02,02,26,17.00
2013,07,02,02,27,17.00
2013,07,02,02,28,17.00
2013,07,02,02,29,17.00
2013,07,02,02,30,17.00
2013,07,02,02,31,17.10
2013,07,02,02,32,17.00
2013,07,02,02,33,17.00
2013,07,02,02,34,17.00
2013,07,02,02,35,17.00
2013,07,02,02,36,17.00
2013,07,02,02,37,16.90
2013,07,02,02,38,16.90
2013,07,02,02,39,16.90
2013,07,02,02,40,16.90
2013,07,02,02,41,16.90
2013,07,02,02,42,16.90
2013,07,02,02,43,16.90
2013,07,02,02,44,16.90
2013,07,02,02,45,16.90
2013,07,02,02,46,16.90
2013,07,02,02,47,16.90
2013,07,02,02,48,16.90
2013,07,02,02,49,16.90
2013,07,02,02,50,16.90
2013,07,02,02,51,16.90
2013,07,02,02,52,16.90
2013,07,02,02,53,16.90
2013,07,02,02,54,16.90
2013,07,02,02,55,16.90
2013,07,02,02,56,16.90
2013,07,02,02,57,16.80
2013,07,02,02,58,16.80
2013,07,02,02,59,16.80
2013,07,02,03,00,16.80
2013,07,02,03,01,16.80
2013,07,02,03,02,16.80
2013,07,02,03,06,16.80
2013,07,02,03,07,16.80
2013,07,02,03,08,16.80
2013,07,02,03,09,16.80
2013,07,02,03,10,16.70
2013,07,02,03,11,16.70
2013,07,02,03,12,16.70
2013,07,02,03,13,16.70
2013,07,02,03,14,16.60
2013,07,02,03,15,16.60
2013,07,02,03,16,16.60
2013,07,02,03,17,16.50
2013,07,02,03,18,16.50
2013,07,02,03,19,16.40
2013,07,02,03,20,16.40
2013,07,02,03,21,16.40
2013,07,02,03,22,16.30
2013,07,02,03,23,16.30
2013,07,02,03,24,16.30
2013,07,02,03,25,16.30
2013,07,02,03,26,16.30
2013,07,02,03,27,16.20
2013,07,02,03,28,16.20
2013,07,02,03,29,16.20
2013,07,02,03,30,16.20
2013,07,02,03,31,16.20
2013,07,02,03,32,16.20
2013,07,02,03,33,16.20
2013,07,02,03,34,16.20
2013,07,02,03,35,16.20
2013,07,02,03,36,16.20
2013,07,02,03,37,16.20
2013,07,02,03,38,16.20
2013,07,02,03,39,16.10
2013,07,02,03,40,16.10
2013,07,02,03,41,16.10
2013,07,02,03,42,16.10
2013,07,02,03,43,16.10
2013,07,02,03,44,16.10
2013,07,02,03,45,16.10
2013,07,02,03,46,16.10
2013,07,02,03,47,16.10
2013,07,02,03,48,16.00
2013,07,02,03,49,16.00
2013,07,02,03,50,16.00
2013,07,02,03,51,15.90
2013,07,02,03,52,15.90
2013,07,02,03,53,15.90
2013,07,02,03,54,15.90
2013,07,02,03,55,15.90
2013,07,02,03,56,15.80
2013,07,02,03,57,15.80
2013,07,02,03,58,15.80
2013,07,02,03,59,15.80
2013,07,02,04,00,15.80
2013,07,02,04,01,15.70
2013,07,02,04,02,15.70
2013,07,02,04,03,15.70
2013,07,02,04,04,15.70
2013,07,02,04,05,15.70
2013,07,02,04,06,15.60
2013,07,02,04,07,15.60
2013,07,02,04,08,15.60
2013,07,02,04,09,15.60
2013,07,02,04,10,15.60
2013,07,02,04,11,15.60
2013,07,02,04,12,15.60
2013,07,02,04,13,15.60
2013,07,02,04,14,15.60
2013,07,02,04,15,15.60
2013,07,02,04,16,15.60
2013,07,02,04,17,15.50
2013,07,02,04,18,15.50
2013,07,02,04,19,15.50
2013,07,02,04,20,15.50
2013,07,02,04,21,15.40
2013,07,02,04,22,15.40
2013,07,02,04,23,15.40
2013,07,02,04,24,15.40
2013,07,02,04,25,15.40
2013,07,02,04,26,15.30
2013,07,02,04,27,15.30
2013,07,02,04,28,15.30
2013,07,02,04,29,15.30
2013,07,02,04,30,15.30
2013,07,02,04,31,15.30
2013,07,02,04,32,15.30
2013,07,02,04,33,15.30
2013,07,02,04,34,15.30
2013,07,02,04,35,15.20
2013,07,02,04,36,15.20
2013,07,02,04,37,15.20
2013,07,02,04,38,15.20
2013,07,02,04,39,15.10
2013,07,02,04,40,15.10
2013,07,02,04,41,15.00
2013,07,02,04,42,15.00
2013,07,02,04,43,15.00
2013,07,02,04,44,15.00
2013,07,02,04,45,15.00
2013,07,02,04,46,15.00
2013,07,02,04,47,15.00
2013,07,02,04,48,15.00
2013,07,02,04,49,15.00
2013,07,02,04,50,15.00
2013,07,02,04,51,15.00
2013,07,02,04,52,15.00
2013,07,02,04,53,15.00
2013,07,02,04,54,15.00
2013,07,02,04,55,15.00
2013,07,02,04,56,15.00
2013,07,02,04,57,15.00
2013,07,02,04,58,15.00
2013,07,02,04,59,15.00
2013,07,02,05,00,15.00
2013,07,02,05,01,15.00
2013,07,02,05,02,15.00
2013,07,02,05,03,15.00
2013,07,02,05,04,15.00
2013,07,02,05,05,15.00
2013,07,02,05,06,14.90
2013,07,02,05,07,14.90
2013,07,02,05,08,14.90
2013,07,02,05,09,14.90
2013,07,02,05,10,14.80
2013,07,02,05,11,14.80
2013,07,02,05,12,14.80
2013,07,02,05,13,14.80
2013,07,02,05,14,14.80
2013,07,02,05,15,14.70
2013,07,02,05,16,14.70
2013,07,02,05,17,14.70
2013,07,02,05,18,14.70
2013,07,02,05,19,14.60
2013,07,02,05,20,14.60
2013,07,02,05,21,14.60
2013,07,02,05,22,14.60
2013,07,02,05,23,14.50
2013,07,02,05,24,14.50
2013,07,02,05,25,14.50
2013,07,02,05,26,14.50
2013,07,02,05,27,14.50
2013,07,02,05,28,14.50
2013,07,02,05,29,14.40
2013,07,02,05,30,14.40
2013,07,02,05,31,14.40
2013,07,02,05,32,14.40
2013,07,02,05,33,14.40
2013,07,02,05,34,14.30
2013,07,02,05,35,14.30
2013,07,02,05,36,14.30
2013,07,02,05,37,14.30
2013,07,02,05,38,14.30
2013,07,02,05,39,14.30
2013,07,02,05,40,14.30
2013,07,02,05,41,14.30
2013,07,02,05,42,14.30
2013,07,02,05,43,14.30
2013,07,02,05,44,14.30
2013,07,02,05,45,14.30
2013,07,02,05,46,14.30
2013,07,02,05,47,14.20
2013,07,02,05,48,14.20
2013,07,02,05,49,14.20
2013,07,02,05,50,14.20
2013,07,02,05,51,14.20
2013,07,02,05,52,14.20
2013,07,02,05,53,14.20
2013,07,02,05,54,14.20
2013,07,02,05,55,14.20
2013,07,02,05,56,14.20
2013,07,02,05,57,14.20
2013,07,02,05,58,14.20
2013,07,02,05,59,14.20
2013,07,02,06,00,14.20
2013,07,02,06,01,14.20
2013,07,02,06,02,14.20
2013,07,02,06,03,14.20
2013,07,02,06,04,14.20
2013,07,02,06,05,14.20
2013,07,02,06,06,14.20
2013,07,02,06,07,14.20
2013,07,02,06,08,14.20
2013,07,02,06,09,14.20
2013,07,02,06,10,14.20
2013,07,02,06,11,14.20
2013,07,02,06,12,14.20
2013,07,02,06,13,14.20
2013,07,02,06,14,14.20
2013,07,02,06,15,14.20
2013,07,02,06,16,14.30
2013,07,02,06,17,14.40
2013,07,02,06,18,14.40
2013,07,02,06,19,14.50
2013,07,02,06,20,14.60
2013,07,02,06,21,14.60
2013,07,02,06,22,14.70
2013,07,02,06,23,14.80
2013,07,02,06,24,14.90
2013,07,02,06,25,15.00
2013,07,02,06,26,15.00
2013,07,02,06,27,15.00
2013,07,02,06,28,15.00
2013,07,02,06,29,15.20
2013,07,02,06,30,15.30
2013,07,02,06,31,15.30
2013,07,02,06,32,15.40
2013,07,02,06,33,15.50
2013,07,02,06,34,15.60
2013,07,02,06,35,15.60
2013,07,02,06,36,15.70
2013,07,02,06,37,15.80
2013,07,02,06,38,15.90
2013,07,02,06,39,15.90
2013,07,02,06,40,16.00
2013,07,02,06,41,16.00
2013,07,02,06,42,16.10
2013,07,02,06,43,16.10
2013,07,02,06,44,16.20
2013,07,02,06,45,16.20
2013,07,02,06,46,16.30
2013,07,02,06,47,16.30
2013,07,02,06,48,16.40
2013,07,02,06,49,16.40
2013,07,02,06,50,16.50
2013,07,02,06,51,16.50
2013,07,02,06,52,16.60
2013,07,02,06,53,16.60
2013,07,02,06,54,16.70
2013,07,02,06,55,16.70
2013,07,02,06,56,16.80
2013,07,02,06,57,16.80
2013,07,02,06,58,16.90
2013,07,02,06,59,17.00
2013,07,02,07,00,17.00
2013,07,02,07,01,17.10
2013,07,02,07,02,17.10
2013,07,02,07,03,17.20
2013,07,02,07,04,17.20
2013,07,02,07,05,17.30
2013,07,02,07,06,17.30
2013,07,02,07,07,17.40
2013,07,02,07,08,17.40
2013,07,02,07,09,17.40
2013,07,02,07,10,17.40
2013,07,02,07,11,17.50
2013,07,02,07,12,17.50
2013,07,02,07,13,17.50
2013,07,02,07,14,17.60
2013,07,02,07,15,17.60
2013,07,02,07,16,17.70
2013,07,02,07,17,17.70
2013,07,02,07,18,17.70
2013,07,02,07,19,17.70
2013,07,02,07,20,17.70
2013,07,02,07,21,17.70
2013,07,02,07,22,17.70
2013,07,02,07,23,17.70
2013,07,02,07,24,17.70
2013,07,02,07,25,17.70
2013,07,02,07,26,17.70
2013,07,02,07,27,17.70
2013,07,02,07,28,17.70
2013,07,02,07,29,17.70
2013,07,02,07,30,17.70
2013,07,02,07,31,17.80
2013,07,02,07,32,17.80
2013,07,02,07,33,17.80
2013,07,02,07,34,17.80
2013,07,02,07,35,17.80
2013,07,02,07,36,17.90
2013,07,02,07,37,18.00
2013,07,02,07,38,18.00
2013,07,02,07,39,18.10
2013,07,02,07,40,18.20
2013,07,02,07,41,18.20
2013,07,02,07,42,18.30
2013,07,02,07,43,18.40
2013,07,02,07,44,18.40
2013,07,02,07,45,18.50
2013,07,02,07,46,18.60
2013,07,02,07,47,18.60
2013,07,02,07,48,18.60
2013,07,02,07,49,18.70
2013,07,02,07,50,18.70
2013,07,02,07,51,18.70
2013,07,02,07,52,18.80
2013,07,02,07,53,18.80
2013,07,02,07,54,18.90
2013,07,02,07,55,18.90
2013,07,02,07,56,19.00
2013,07,02,07,57,19.10
2013,07,02,07,58,19.20
2013,07,02,07,59,19.20
2013,07,02,08,00,19.30
2013,07,02,08,01,19.40
2013,07,02,08,02,19.50
2013,07,02,08,03,19.60
2013,07,02,08,04,19.70
2013,07,02,08,05,19.80
2013,07,02,08,06,19.90
2013,07,02,08,07,20.00
2013,07,02,08,08,20.10
2013,07,02,08,09,20.20
2013,07,02,08,10,20.30
2013,07,02,08,11,20.30
2013,07,02,08,12,20.40
2013,07,02,08,13,20.50
2013,07,02,08,14,20.50
2013,07,02,08,15,20.60
2013,07,02,08,16,20.60
2013,07,02,08,17,20.70
2013,07,02,08,18,20.70
2013,07,02,08,19,20.80
2013,07,02,08,20,20.90
2013,07,02,08,21,21.00
2013,07,02,08,22,21.10
2013,07,02,08,23,21.20
2013,07,02,08,24,21.30
2013,07,02,08,25,21.40
2013,07,02,08,26,21.50
2013,07,02,08,27,21.50
2013,07,02,08,28,21.60
2013,07,02,08,29,21.70
2013,07,02,08,30,21.70
2013,07,02,08,31,21.80
2013,07,02,08,32,21.80
2013,07,02,08,33,21.80
2013,07,02,08,34,21.80
2013,07,02,08,35,21.80
2013,07,02,08,36,21.90
2013,07,02,08,37,21.90
2013,07,02,08,38,21.90
2013,07,02,08,39,22.00
2013,07,02,08,40,22.00
2013,07,02,08,41,22.10
2013,07,02,08,42,22.20
2013,07,02,08,43,22.30
2013,07,02,08,44,22.50
2013,07,02,08,45,22.50
2013,07,02,08,46,22.60
2013,07,02,08,47,22.70
2013,07,02,08,48,22.80
2013,07,02,08,49,22.80
2013,07,02,08,50,22.90
2013,07,02,08,51,22.90
2013,07,02,08,52,22.90
2013,07,02,08,53,22.90
2013,07,02,08,54,22.90
2013,07,02,08,55,22.80
2013,07,02,08,56,22.80
2013,07,02,08,57,22.80
2013,07,02,08,58,22.80
2013,07,02,08,59,22.70
2013,07,02,09,00,22.70
2013,07,02,09,01,22.70
2013,07,02,09,02,22.70
2013,07,02,09,03,22.70
2013,07,02,09,04,22.70
2013,07,02,09,05,22.70
2013,07,02,09,06,22.70
2013,07,02,09,07,22.70
2013,07,02,09,08,22.70
2013,07,02,09,09,22.80
2013,07,02,09,10,22.80
2013,07,02,09,11,22.80
2013,07,02,09,12,22.70
2013,07,02,09,13,22.60
2013,07,02,09,14,22.50
2013,07,02,09,15,22.40
2013,07,02,09,16,22.30
2013,07,02,09,17,22.10
2013,07,02,09,18,22.10
2013,07,02,09,19,22.00
2013,07,02,09,20,21.90
2013,07,02,09,21,21.90
2013,07,02,09,22,21.80
2013,07,02,09,23,21.70
2013,07,02,09,24,21.70
2013,07,02,09,25,21.60
2013,07,02,09,26,21.50
2013,07,02,09,27,21.50
2013,07,02,09,28,21.40
2013,07,02,09,29,21.40
2013,07,02,09,30,21.30
2013,07,02,09,31,21.40
2013,07,02,09,32,21.40
2013,07,02,09,33,21.40
2013,07,02,09,34,21.50
2013,07,02,09,35,21.60
2013,07,02,09,36,21.70
2013,07,02,09,37,21.80
2013,07,02,09,38,21.80
2013,07,02,09,39,21.80
2013,07,02,09,40,21.80
2013,07,02,09,41,21.80
2013,07,02,09,42,21.90
2013,07,02,09,43,22.00
2013,07,02,09,44,22.10
2013,07,02,09,45,22.20
2013,07,02,09,46,22.20
2013,07,02,09,47,22.30
2013,07,02,09,48,22.40
2013,07,02,09,49,22.40
2013,07,02,09,50,22.40
2013,07,02,09,51,22.40
2013,07,02,09,52,22.40
2013,07,02,09,53,22.40
2013,07,02,09,54,22.40
2013,07,02,09,55,22.40
2013,07,02,09,56,22.40
2013,07,02,09,57,22.40
2013,07,02,09,58,22.40
2013,07,02,09,59,22.30
2013,07,02,10,00,22.30
2013,07,02,10,01,22.30
2013,07,02,10,02,22.30
2013,07,02,10,03,22.30
2013,07,02,10,04,22.30
2013,07,02,10,05,22.30
2013,07,02,10,06,22.30
2013,07,02,10,07,22.30
2013,07,02,10,08,22.30
2013,07,02,10,09,22.30
2013,07,02,10,10,22.30
2013,07,02,10,11,22.30
2013,07,02,10,12,22.30
2013,07,02,10,13,22.30
2013,07,02,10,14,22.30
2013,07,02,10,15,22.40
2013,07,02,10,16,22.50
2013,07,02,10,17,22.60
2013,07,02,10,18,22.80
2013,07,02,10,19,22.90
2013,07,02,10,20,23.00
2013,07,02,10,21,23.10
2013,07,02,10,22,23.10
2013,07,02,10,23,23.00
2013,07,02,10,24,23.00
2013,07,02,10,25,22.90
2013,07,02,10,26,22.80
2013,07,02,10,27,22.80
2013,07,02,10,28,22.70
2013,07,02,10,29,22.70
2013,07,02,10,30,22.60
2013,07,02,10,31,22.60
2013,07,02,10,32,22.50
2013,07,02,10,33,22.40
2013,07,02,10,34,22.30
2013,07,02,10,35,22.30
2013,07,02,10,36,22.20
2013,07,02,10,37,22.10
2013,07,02,10,38,22.00
2013,07,02,10,39,22.00
2013,07,02,10,40,22.00
2013,07,02,10,41,22.00
2013,07,02,10,42,22.00
2013,07,02,10,43,22.10
2013,07,02,10,44,22.10
2013,07,02,10,45,22.20
2013,07,02,10,46,22.30
2013,07,02,10,47,22.40
2013,07,02,10,48,22.60
2013,07,02,10,49,22.70
2013,07,02,10,50,22.70
2013,07,02,10,51,22.80
2013,07,02,10,52,22.90
2013,07,02,10,53,23.00
2013,07,02,10,54,23.00
2013,07,02,10,55,23.10
2013,07,02,10,56,23.00
2013,07,02,10,57,23.00
2013,07,02,10,58,22.90
2013,07,02,10,59,22.80
2013,07,02,11,00,22.80
2013,07,02,11,01,22.70
2013,07,02,11,02,22.80
2013,07,02,11,03,22.80
2013,07,02,11,04,22.80
2013,07,02,11,05,22.70
2013,07,02,11,06,22.70
2013,07,02,11,07,22.80
2013,07,02,11,08,22.90
2013,07,02,11,09,22.90
2013,07,02,11,10,22.90
2013,07,02,11,11,22.90
2013,07,02,11,12,23.00
2013,07,02,11,13,23.00
2013,07,02,11,14,23.00
2013,07,02,11,15,23.10
2013,07,02,11,16,23.20
2013,07,02,11,17,23.30
2013,07,02,11,18,23.30
2013,07,02,11,19,23.30
2013,07,02,11,20,23.20
2013,07,02,11,21,23.20
2013,07,02,11,22,23.30
2013,07,02,11,23,23.40
2013,07,02,11,24,23.40
2013,07,02,11,25,23.40
2013,07,02,11,26,23.40
2013,07,02,11,27,23.40
2013,07,02,11,28,23.50
2013,07,02,11,29,23.50
2013,07,02,11,30,23.50
2013,07,02,11,31,23.40
2013,07,02,11,32,23.30
2013,07,02,11,33,23.30
2013,07,02,11,34,23.40
2013,07,02,11,35,23.50
2013,07,02,11,36,23.60
2013,07,02,11,37,23.60
2013,07,02,11,38,23.60
2013,07,02,11,39,23.60
2013,07,02,11,40,23.60
2013,07,02,11,41,23.60
2013,07,02,11,42,23.60
2013,07,02,11,43,23.60
2013,07,02,11,44,23.60
2013,07,02,11,45,23.50
2013,07,02,11,46,23.60
2013,07,02,11,47,23.70
2013,07,02,11,48,23.70
2013,07,02,11,49,23.70
2013,07,02,11,50,23.60
2013,07,02,11,51,23.60
2013,07,02,11,52,23.60
2013,07,02,11,53,23.60
2013,07,02,11,54,23.70
2013,07,02,11,55,23.70
2013,07,02,11,56,23.60
2013,07,02,11,57,23.60
2013,07,02,11,58,23.60
2013,07,02,11,59,23.60
2013,07,02,12,00,23.50
2013,07,02,12,01,23.50
2013,07,02,12,02,23.50
2013,07,02,12,03,23.50
2013,07,02,12,04,23.50
2013,07,02,12,05,23.60
2013,07,02,12,06,23.60
2013,07,02,12,07,23.60
2013,07,02,12,08,23.60
2013,07,02,12,09,23.60
2013,07,02,12,10,23.60
2013,07,02,12,11,23.60
2013,07,02,12,12,23.60
2013,07,02,12,13,23.70
2013,07,02,12,14,23.70
2013,07,02,12,15,23.70
2013,07,02,12,16,23.80
2013,07,02,12,17,23.90
2013,07,02,12,18,23.90
2013,07,02,12,19,24.00
2013,07,02,12,20,24.10
2013,07,02,12,21,24.20
2013,07,02,12,22,24.20
2013,07,02,12,23,24.10
2013,07,02,12,24,24.00
2013,07,02,12,25,24.00
2013,07,02,12,26,23.90
2013,07,02,12,27,23.90
2013,07,02,12,28,24.00
2013,07,02,12,29,24.00
2013,07,02,12,30,24.00
2013,07,02,12,31,23.90
2013,07,02,12,32,24.00
2013,07,02,12,33,24.10
2013,07,02,12,34,24.20
2013,07,02,12,35,24.30
2013,07,02,12,36,24.20
2013,07,02,12,37,24.30
2013,07,02,12,38,24.40
2013,07,02,12,39,24.40
2013,07,02,12,40,24.40
2013,07,02,12,41,24.40
2013,07,02,12,42,24.40
2013,07,02,12,43,24.30
2013,07,02,12,44,24.30
2013,07,02,12,45,24.20
2013,07,02,12,46,24.20
2013,07,02,12,47,24.30
2013,07,02,12,48,24.20
2013,07,02,12,49,24.30
2013,07,02,12,50,24.30
2013,07,02,12,51,24.40
2013,07,02,12,52,24.50
2013,07,02,12,53,24.60
2013,07,02,12,54,24.70
2013,07,02,12,55,24.70
2013,07,02,12,56,24.70
2013,07,02,12,57,24.70
2013,07,02,12,58,24.70
2013,07,02,12,59,24.80
2013,07,02,13,00,24.80
2013,07,02,13,01,24.80
2013,07,02,13,02,24.80
2013,07,02,13,03,24.90
2013,07,02,13,04,25.00
2013,07,02,13,05,25.00
2013,07,02,13,06,24.90
2013,07,02,13,07,24.90
2013,07,02,13,08,24.90
2013,07,02,13,09,25.00
2013,07,02,13,10,24.90
2013,07,02,13,11,24.90
2013,07,02,13,12,24.90
2013,07,02,13,13,25.00
2013,07,02,13,14,25.00
2013,07,02,13,15,25.00
2013,07,02,13,16,25.10
2013,07,02,13,17,25.10
2013,07,02,13,18,25.10
2013,07,02,13,19,25.10
2013,07,02,13,20,25.10
2013,07,02,13,21,25.10
2013,07,02,13,22,25.10
2013,07,02,13,23,25.10
2013,07,02,13,24,25.20
2013,07,02,13,25,25.30
2013,07,02,13,26,25.50
2013,07,02,13,27,25.50
2013,07,02,13,28,25.60
2013,07,02,13,29,25.60
2013,07,02,13,30,25.70
2013,07,02,13,31,25.60
2013,07,02,13,32,25.60
2013,07,02,13,33,25.60
2013,07,02,13,34,25.50
2013,07,02,13,35,25.40
2013,07,02,13,36,25.30
2013,07,02,13,37,25.30
2013,07,02,13,38,25.30
2013,07,02,13,39,25.30
2013,07,02,13,40,25.30
2013,07,02,13,41,25.20
2013,07,02,13,42,25.20
2013,07,02,13,43,25.20
2013,07,02,13,44,25.30
2013,07,02,13,45,25.40
2013,07,02,13,46,25.60
2013,07,02,13,47,25.60
2013,07,02,13,48,25.60
2013,07,02,13,49,25.60
2013,07,02,13,50,25.50
2013,07,02,13,51,25.40
2013,07,02,13,52,25.40
2013,07,02,13,53,25.40
2013,07,02,13,54,25.50
2013,07,02,13,55,25.50
2013,07,02,13,56,25.50
2013,07,02,13,57,25.50
2013,07,02,13,58,25.50
2013,07,02,13,59,25.60
2013,07,02,14,00,25.70
2013,07,02,14,01,25.70
2013,07,02,14,02,25.70
2013,07,02,14,03,25.70
2013,07,02,14,04,25.80
2013,07,02,14,05,25.80
2013,07,02,14,06,25.90
2013,07,02,14,07,26.00
2013,07,02,14,08,26.10
2013,07,02,14,09,26.00
2013,07,02,14,10,25.90
2013,07,02,14,11,26.00
2013,07,02,14,12,26.10
2013,07,02,14,13,26.10
2013,07,02,14,14,26.10
2013,07,02,14,15,26.00
2013,07,02,14,16,26.00
2013,07,02,14,17,25.90
2013,07,02,14,18,25.90
2013,07,02,14,19,25.90
2013,07,02,14,20,25.90
2013,07,02,14,21,25.90
2013,07,02,14,22,25.90
2013,07,02,14,23,25.80
2013,07,02,14,24,25.70
2013,07,02,14,25,25.70
2013,07,02,14,26,25.60
2013,07,02,14,27,25.60
2013,07,02,14,28,25.60
2013,07,02,14,29,25.60
2013,07,02,14,30,25.70
2013,07,02,14,31,25.70
2013,07,02,14,32,25.80
2013,07,02,14,33,25.90
2013,07,02,14,34,25.90
2013,07,02,14,35,25.90
2013,07,02,14,36,25.90
2013,07,02,14,37,25.80
2013,07,02,14,38,25.80
2013,07,02,14,39,25.70
2013,07,02,14,40,25.70
2013,07,02,14,41,25.60
2013,07,02,14,42,25.60
2013,07,02,14,43,25.60
2013,07,02,14,44,25.70
2013,07,02,14,45,25.70
2013,07,02,14,46,25.70
2013,07,02,14,47,25.70
2013,07,02,14,48,25.70
2013,07,02,14,49,25.80
2013,07,02,14,50,25.80
2013,07,02,14,51,25.90
2013,07,02,14,52,25.90
2013,07,02,14,53,25.90
2013,07,02,14,54,25.80
2013,07,02,14,55,25.70
2013,07,02,14,56,25.70
2013,07,02,14,57,25.70
2013,07,02,14,58,25.70
2013,07,02,14,59,25.90
2013,07,02,15,00,25.90
2013,07,02,15,01,25.90
2013,07,02,15,02,26.00
2013,07,02,15,03,26.10
2013,07,02,15,04,26.10
2013,07,02,15,05,26.20
2013,07,02,15,06,26.20
2013,07,02,15,07,26.10
2013,07,02,15,08,26.00
2013,07,02,15,09,25.90
2013,07,02,15,10,25.80
2013,07,02,15,11,25.70
2013,07,02,15,12,25.60
2013,07,02,15,13,25.50
2013,07,02,15,14,25.50
2013,07,02,15,15,25.60
2013,07,02,15,16,25.60
2013,07,02,15,17,25.60
2013,07,02,15,18,25.60
2013,07,02,15,19,25.60
2013,07,02,15,20,25.60
2013,07,02,15,21,25.60
2013,07,02,15,22,25.70
2013,07,02,15,23,25.70
2013,07,02,15,24,25.70
2013,07,02,15,25,25.60
2013,07,02,15,26,25.60
2013,07,02,15,27,25.60
2013,07,02,15,28,25.70
2013,07,02,15,29,25.70
2013,07,02,15,30,25.70
2013,07,02,15,31,25.70
2013,07,02,15,32,25.60
2013,07,02,15,33,25.50
2013,07,02,15,34,25.50
2013,07,02,15,35,25.50
2013,07,02,15,36,25.40
2013,07,02,15,37,25.40
2013,07,02,15,38,25.40
2013,07,02,15,39,25.40
2013,07,02,15,40,25.40
2013,07,02,15,41,25.50
2013,07,02,15,42,25.60
2013,07,02,15,43,25.60
2013,07,02,15,44,25.70
2013,07,02,15,45,25.70
2013,07,02,15,46,25.70
2013,07,02,15,47,25.70
2013,07,02,15,48,25.70
2013,07,02,15,49,25.70
2013,07,02,15,50,25.70
2013,07,02,15,51,25.80
2013,07,02,15,52,25.80
2013,07,02,15,53,25.80
2013,07,02,15,54,25.90
2013,07,02,15,55,25.90
2013,07,02,15,56,25.90
2013,07,02,15,57,25.90
2013,07,02,15,58,25.90
2013,07,02,15,59,25.80
2013,07,02,16,00,25.80
2013,07,02,16,01,25.90
2013,07,02,16,02,25.90
2013,07,02,16,03,25.90
2013,07,02,16,04,26.00
2013,07,02,16,05,26.00
2013,07,02,16,06,26.10
2013,07,02,16,07,26.10
2013,07,02,16,08,26.10
2013,07,02,16,09,26.10
2013,07,02,16,10,26.20
2013,07,02,16,11,26.20
2013,07,02,16,12,26.20
2013,07,02,16,13,26.20
2013,07,02,16,14,26.10
2013,07,02,16,15,26.00
2013,07,02,16,16,26.00
2013,07,02,16,17,26.00
2013,07,02,16,18,25.90
2013,07,02,16,19,25.90
2013,07,02,16,20,25.90
2013,07,02,16,21,25.90
2013,07,02,16,22,25.90
2013,07,02,16,23,25.90
2013,07,02,16,24,26.00
2013,07,02,16,25,26.00
2013,07,02,16,26,26.10
2013,07,02,16,27,26.20
2013,07,02,16,28,26.20
2013,07,02,16,29,26.20
2013,07,02,16,30,26.10
2013,07,02,16,31,26.10
2013,07,02,16,32,26.00
2013,07,02,16,33,26.00
2013,07,02,16,34,25.90
2013,07,02,16,35,25.90
2013,07,02,16,36,25.90
2013,07,02,16,37,25.90
2013,07,02,16,38,26.00
2013,07,02,16,39,26.10
2013,07,02,16,40,26.10
2013,07,02,16,41,26.20
2013,07,02,16,42,26.20
2013,07,02,16,43,26.20
2013,07,02,16,44,26.20
2013,07,02,16,45,26.20
2013,07,02,16,46,26.20
2013,07,02,16,47,26.20
2013,07,02,16,48,26.20
2013,07,02,16,49,26.20
2013,07,02,16,50,26.20
2013,07,02,16,51,26.20
2013,07,02,16,52,26.20
2013,07,02,16,53,26.20
2013,07,02,16,54,26.10
2013,07,02,16,55,26.10
2013,07,02,16,56,26.10
2013,07,02,16,57,26.10
2013,07,02,16,58,26.20
2013,07,02,16,59,26.20
2013,07,02,17,00,26.20
2013,07,02,17,01,26.20
2013,07,02,17,02,26.20
2013,07,02,17,03,26.20
2013,07,02,17,04,26.20
2013,07,02,17,05,26.20
2013,07,02,17,06,26.20
2013,07,02,17,07,26.20
2013,07,02,17,08,26.20
2013,07,02,17,09,26.20
2013,07,02,17,10,26.20
2013,07,02,17,11,26.20
2013,07,02,17,12,26.20
2013,07,02,17,13,26.30
2013,07,02,17,14,26.30
2013,07,02,17,15,26.30
2013,07,02,17,16,26.30
2013,07,02,17,17,26.30
2013,07,02,17,18,26.40
2013,07,02,17,19,26.40
2013,07,02,17,20,26.40
2013,07,02,17,21,26.50
2013,07,02,17,22,26.50